EW4399 Weather Reports


time (UTC)temp
F
wind
direction
speed
knots
gust
knots
rain 1hr
in
rain 24hr
in
rain mn
in
humidity
%
barometer
mb
20260508023030 43 210 0.0 1.7 0.00 1.12 1.12 96 1001.9
20260508021528 43 206 0.9 4.3 0.00 1.12 1.12 96 1001.8
20260508020027 43 241 1.7 4.3 0.00 1.12 1.12 96 1002.0
20260508014526 43 192 3.5 5.2 0.00 1.12 1.12 96 1002.1
20260508013024 43 166 1.7 4.3 0.00 1.12 1.12 96 1002.0
20260508011529 43 189 0.9 5.2 0.00 1.12 1.12 96 1001.8
20260508010021 44 223 2.6 4.3 0.00 1.12 1.12 96 1001.9
20260508004536 44 191 0.0 5.2 0.00 1.12 1.12 96 1002.4
20260508003018 44 223 1.7 5.2 0.00 1.12 1.12 96 1002.5
20260508001530 44 215 0.9 5.2 0.00 1.12 1.12 96 1002.3
20260508000016 45 234 2.6 6.1 0.00 1.12 1.12 96 1002.3
20260507234516 45 200 2.6 7.8 0.02 1.12 1.12 96 1002.3
20260507233014 45 229 3.5 8.7 0.06 1.12 1.12 96 1002.2
20260507231512 46 157 1.7 10.4 0.09 1.12 1.12 96 1002.5
20260507230011 46 175 5.2 10.4 0.14 1.12 1.12 96 1002.7
20260507224512 46 153 2.6 9.6 0.17 1.10 1.10 96 1002.9
20260507223010 46 184 2.6 7.8 0.20 1.07 1.07 96 1002.8
20260507221507 46 173 5.2 10.4 0.22 1.03 1.03 96 1002.8
20260507220011 47 182 3.5 7.8 0.24 0.98 0.98 96 1003.1
20260507214507 47 219 1.7 10.4 0.26 0.93 0.93 96 1003.4
20260507213006 47 125 4.3 7.8 0.27 0.87 0.87 96 1003.0
20260507211506 47 105 5.2 8.7 0.28 0.81 0.81 96 1002.6
20260507210003 47 120 0.9 7.0 0.28 0.74 0.74 96 1003.3
20260507204602 46 169 1.7 7.8 0.28 0.68 0.68 96 1004.0
20260507203127 46 157 2.6 7.8 0.28 0.61 0.61 96 1004.2
20260507201556 45 153 2.6 4.3 0.26 0.53 0.53 96 1004.3
20260507200056 45 199 1.7 7.8 0.24 0.46 0.46 95 1004.9
20260507194606 45 211 4.3 7.8 0.19 0.39 0.39 95 1005.5
20260507193050 45 297 1.7 8.7 0.16 0.32 0.32 95 1005.0
20260507191549 45 109 3.5 10.4 0.12 0.27 0.27 95 1005.4
20260507190055 45 178 3.5 12.2 0.09 0.23 0.23 95 1005.3
20260507184544 46 132 3.5 14.8 0.07 0.19 0.19 95 1006.0
20260507183043 46 199 7.8 13.0 0.05 0.17 0.17 95 1005.9
20260507181542 46 116 7.8 16.5 0.03 0.15 0.15 95 1005.7
20260507180041 47 208 5.2 14.8 0.02 0.13 0.13 95 1005.7
20260507174544 47 128 8.7 16.5 0.00 0.12 0.12 95 1005.8
20260507173103 47 156 7.0 15.6 0.00 0.12 0.12 95 1006.2
20260507171539 48 157 6.1 13.0 0.00 0.12 0.12 95 1006.5
20260507170038 49 183 5.2 15.6 0.00 0.12 0.12 96 1006.7
20260507164534 48 138 6.1 14.8 0.00 0.12 0.12 96 1006.9
20260507163029 48 128 6.1 18.2 0.00 0.12 0.12 95 1007.5
20260507161529 48 120 5.2 13.9 0.00 0.12 0.12 95 1008.0
20260507160023 49 180 6.1 13.0 0.00 0.12 0.12 95 1008.3
20260507154519 48 188 8.7 20.0 0.01 0.12 0.12 95 1008.7
20260507153017 48 132 6.1 13.0 0.01 0.12 0.12 95 1009.1
20260507151515 48 145 6.1 14.8 0.02 0.12 0.12 95 1009.6
20260507150016 47 155 7.0 13.9 0.02 0.12 0.12 95 1009.8
20260507144507 47 108 7.0 18.2 0.04 0.11 0.11 95 1010.1
20260507143003 47 147 1.7 14.8 0.06 0.11 0.11 95 1010.4
20260507141611 47 171 7.0 13.9 0.06 0.10 0.10 95 1010.9
20260507140056 48 155 9.6 15.6 0.06 0.10 0.10 95 1010.9
20260507134555 47 158 6.1 15.6 0.02 0.07 0.07 95 1011.3
20260507133134 46 106 6.1 22.6 0.01 0.06 0.06 95 1011.5
20260507131549 47 148 8.7 13.9 0.00 0.05 0.05 95 1011.3
20260507130059 47 142 7.0 20.0 0.00 0.05 0.05 95 1011.3
20260507124549 47 168 7.8 14.8 0.00 0.05 0.05 95 1011.3
20260507123049 47 175 7.8 14.8 0.00 0.05 0.05 95 1011.7
20260507121544 47 131 4.3 16.5 0.00 0.05 0.05 95 1011.9
20260507120040 47 154 4.3 13.9 0.00 0.05 0.05 95 1012.4
20260507114549 47 145 9.6 20.0 0.00 0.05 0.05 95 1012.8
20260507113037 47 178 7.0 14.8 0.00 0.05 0.05 95 1012.7
20260507111534 47 129 6.1 13.9 0.00 0.05 0.05 95 1012.8
20260507110040 47 140 5.2 13.9 0.00 0.05 0.05 95 1012.7
20260507104531 47 168 4.3 12.2 0.00 0.05 0.05 96 1012.7
20260507103035 46 186 5.2 12.2 0.00 0.05 0.05 96 1012.9
20260507101534 46 153 2.6 15.6 0.00 0.05 0.05 95 1013.2
20260507100025 45 300 6.1 10.4 0.00 0.05 0.05 95 1013.4
20260507094523 45 150 3.5 8.7 0.00 0.05 0.05 95 1013.3
20260507093021 45 128 2.6 7.8 0.00 0.05 0.05 95 1013.1
20260507091521 45 173 3.5 13.0 0.01 0.05 0.05 95 1013.4
20260507090014 45 180 2.6 7.8 0.01 0.05 0.05 95 1013.6
20260507084513 45 215 0.9 12.2 0.02 0.05 0.05 94 1013.6
20260507083011 46 198 3.5 8.7 0.04 0.05 0.05 94 1013.8
20260507081508 47 202 4.3 8.7 0.04 0.04 0.04 94 1013.9
20260507080007 47 209 4.3 12.2 0.04 0.04 0.04 94 1013.9
20260507074504 47 152 5.2 13.9 0.02 0.02 0.02 94 1014.1
20260507073109 47 130 4.3 12.2 0.01 0.01 0.01 94 1014.4
20260507071559 47 168 4.3 10.4 0.00 0.00 0.00 93 1014.6
20260507070105 48 150 5.2 12.2 0.00 0.00 0.00 93 1014.7
20260507064558 47 153 7.8 18.2 0.00 0.00 0.00 94 1014.8
20260507063054 47 43 6.1 17.4 0.00 0.00 0.00 95 1015.1
20260507061551 47 165 4.3 11.3 0.00 0.00 0.00 95 1015.2
20260507060053 46 159 1.7 7.8 0.00 0.00 0.00 95 1015.3
20260507054545 46 201 2.6 7.8 0.00 0.00 0.00 95 1015.5
20260507053043 46 194 1.7 6.1 0.00 0.00 0.00 95 1015.8
20260507051540 46 214 2.6 10.4 0.00 0.00 0.00 95 1016.2
20260507050038 46 184 3.5 7.8 0.00 0.00 0.00 94 1016.6
20260507044547 47 193 2.6 9.6 0.00 0.00 0.00 95 1016.8
20260507043032 47 196 1.7 6.1 0.00 0.00 0.00 95 1016.9
20260507041528 47 202 1.7 7.0 0.00 0.00 0.00 94 1017.3
20260507040026 47 212 4.3 8.7 0.00 0.00 0.00 94 1017.5
20260507034522 47 180 2.6 9.6 0.00 0.00 0.00 94 1017.9
20260507033028 46 224 2.6 7.0 0.00 0.00 0.00 94 1018.1
20260507031519 47 193 4.3 10.4 0.00 0.00 0.00 94 1018.3
20260507030015 47 155 3.5 10.4 0.00 0.00 0.00 94 1018.6
20260507024514 48 211 4.3 13.0 0.00 0.00 0.00 94 1018.7